Location: Beau Repaire
(50.6144°N, 4.0551°E)
Time: 19:56:11
(UTC+00:00)

GP-B - Pass Details

Date: 15 May 2026
Orbit: 617 x 621 km, 89.9° (Epoch: 6 June)

Event Time Altitude Azimuth Distance (km) Brightness Sun altitude
Rises 22:28:51 0° 10° (N) 2,907 7.6 -18.6°
Reaches altitude 10° 22:31:22 10° 23° (NNE) 1,995 6.4 -18.7°
Maximum altitude 22:35:05 26° 81° (E) 1,214 4.5 -18.9°
Enters shadow 22:36:13 24° 107° (ESE) 1,307 4.4 -18.9°
